Grand Forks AFB, ND

2:08 PM CDT on September 26, 2017 (GMT -0500)
Grand Forks Air Force Base

Weather History for KRDR - January, 2014

Change the Weather History Date:

Wednesday, January 15, 2014

  Actual Average Record
Temperature  
Mean Temperature 15 °F -  
Max Temperature 41 °F 13 °F 41 °F (2014)
Min Temperature -11 °F 0 °F -24 °F (2009)
Degree Days  
Heating Degree Days 50    
Moisture  
Dew Point 7 °F    
Average Humidity 80    
Maximum Humidity 86    
Minimum Humidity 61    
Precipitation  
Precipitation 0.01 in - - ()
Sea Level Pressure  
Sea Level Pressure 29.66 in    
Wind  
Wind Speed 15 mph (SSW)    
Max Wind Speed 26 mph    
Max Gust Speed 34 mph    
Visibility 6 miles    
Events Snow    
Averages and records for this station are not official NWS values.
T = Trace of Precipitation, MM = Missing Value Source: NWS Daily Summary

Daily Weather History Graph

Daily Weather History Graph

Search for Another Location

Airport or City:

Trip Planner

Search our weather history database for the weather conditions in past years. The results will help you decide how hot, cold, wet, or windy it might be!

Date:

Astronomy

Jan. 15, 2014 Rise Set
Actual Time 8:14 AM CST 5:04 PM CST
Civil Twilight 7:39 AM CST 5:39 PM CST
Nautical Twilight 7:00 AM CST 6:17 PM CST
Astronomical Twilight 6:23 AM CST 6:55 PM CST
Moon 5:07 PM CST (1/15) 7:27 AM CST (1/15)
Length of Visible Light 10h 00m
Length of Day
8h 49m
Full, 100% of the Moon is Illuminated
Jan 15
Full
Jan 15
Full
Jan 23
Last Quarter
Jan 30
New
Feb 6
First Quarter

Hourly Weather History & Observations

Time (CST) Temp. Windchill Dew Point Humidity Pressure Visibility Wind Dir Wind Speed Gust Speed Precip Events Conditions
12:58 AM -7.4 °F -24.4 °F -12.3 °F 79% 30.27 in 10.0 mi WNW 9.2 mph - N/A   Clear
1:58 AM -10.3 °F -21.9 °F -15.2 °F 79% 30.25 in 10.0 mi West 4.6 mph - N/A   Clear
2:58 AM -11.0 °F -22.8 °F -16.1 °F 78% 30.23 in 10.0 mi West 4.6 mph - N/A   Clear
3:58 AM -8.0 °F -21.0 °F -13.2 °F 78% 30.19 in 10.0 mi SW 5.8 mph - 0.00 in Snow Light Snow
4:04 AM -7.6 °F -20.6 °F -13.0 °F 77% 30.09 in 10.0 mi SW 5.8 mph - N/A   Clear
4:58 AM -9.8 °F -24.7 °F -15.0 °F 78% 30.14 in 10.0 mi SSW 6.9 mph - 0.00 in Snow Light Snow
5:17 AM -7.6 °F -22.1 °F -13.0 °F 77% 30.03 in 10.0 mi South 6.9 mph - N/A   Clear
5:52 AM -5.8 °F -19.9 °F -11.2 °F 77% 30.02 in 10.0 mi SW 6.9 mph - N/A Snow Light Snow
5:58 AM -5.4 °F -19.5 °F -10.7 °F 78% 30.11 in 10.0 mi SSW 6.9 mph - 0.00 in Snow Light Snow
6:02 AM -4.0 °F -16.3 °F -9.4 °F 78% 30.02 in 10.0 mi SSW 5.8 mph - N/A   Mostly Cloudy
6:06 AM -4.0 °F -16.3 °F -9.4 °F 78% 30.02 in 10.0 mi SSW 5.8 mph - N/A Snow Light Snow
6:55 AM -0.4 °F -17.6 °F -4.0 °F 85% 30.04 in 10.0 mi South 11.5 mph - N/A   Clear
7:58 AM 4.1 °F -14.1 °F -3.1 °F 72% 29.98 in 10.0 mi SSW 15.0 mph - N/A   Scattered Clouds
8:58 AM 5.5 °F -14.0 °F -1.8 °F 72% 29.88 in 10.0 mi South 18.4 mph - N/A   Overcast
9:37 AM 6.8 °F -12.9 °F -0.4 °F 72% 29.77 in 5.0 mi South 19.6 mph - N/A Snow Light Snow
9:42 AM 6.8 °F -12.4 °F -0.4 °F 72% 29.76 in 1.8 mi South 18.4 mph - N/A Snow Light Snow
9:58 AM 6.8 °F -12.9 °F 1.8 °F 80% 29.83 in 2.0 mi South 19.6 mph - 0.00 in Snow Light Snow
10:03 AM 6.8 °F -11.8 °F 1.4 °F 79% 29.73 in 1.8 mi South 17.3 mph - N/A Snow Light Snow
10:08 AM 6.8 °F -12.4 °F 3.2 °F 85% 29.73 in 2.0 mi South 18.4 mph - N/A Snow Light Snow
10:18 AM 6.8 °F -13.8 °F 3.2 °F 85% 29.71 in 1.8 mi South 21.9 mph - N/A Snow Light Snow
10:23 AM 6.8 °F -13.4 °F 3.2 °F 85% 29.71 in 2.0 mi South 20.7 mph - N/A Snow Light Snow
10:28 AM 6.8 °F -14.7 °F 3.2 °F 85% 29.70 in 2.5 mi South 24.2 mph - N/A   Haze
10:33 AM 6.8 °F -13.8 °F 3.2 °F 85% 29.69 in 3.0 mi South 21.9 mph - N/A   Haze
10:48 AM 8.6 °F -11.4 °F 3.2 °F 79% 29.66 in 3.0 mi South 21.9 mph - N/A   Haze
10:53 AM 8.6 °F -11.0 °F 3.2 °F 79% 29.67 in 3.0 mi South 20.7 mph - N/A   Haze
10:58 AM 8.6 °F -11.0 °F 4.1 °F 82% 29.75 in 4.0 mi South 20.7 mph - 0.00 in   Haze
11:03 AM 8.6 °F -11.0 °F 5.0 °F 85% 29.65 in 6.0 mi South 20.7 mph - N/A   Haze
11:10 AM 8.6 °F -11.9 °F 5.0 °F 85% 29.62 in 3.0 mi South 23.0 mph - N/A Snow Light Snow
11:15 AM 10.4 °F -9.1 °F 5.0 °F 79% 29.61 in 2.0 mi South 21.9 mph - N/A Snow Light Snow
11:20 AM 10.4 °F -9.1 °F 5.0 °F 79% 29.61 in 1.8 mi South 21.9 mph - N/A Snow Light Snow
11:25 AM 10.4 °F -8.6 °F 6.8 °F 85% 29.60 in 1.5 mi South 20.7 mph - N/A Snow Light Snow
11:40 AM 12.2 °F -6.3 °F 6.8 °F 79% 29.56 in 2.5 mi South 20.7 mph - N/A Snow Light Snow
11:42 AM 12.2 °F -7.1 °F 6.8 °F 79% 29.57 in 2.5 mi South 23.0 mph - N/A   Haze
11:47 AM 12.2 °F -7.5 °F 8.6 °F 85% 29.56 in 3.0 mi South 24.2 mph - N/A   Overcast
11:52 AM 12.2 °F -8.2 °F 8.6 °F 85% 29.54 in 2.0 mi South 26.5 mph - N/A Snow Light Snow
11:57 AM 12.2 °F -7.9 °F 8.6 °F 85% 29.54 in 1.2 mi South 25.3 mph - N/A Snow Light Snow
11:58 AM 12.0 °F -8.1 °F 8.1 °F 84% 29.62 in 1.2 mi South 25.3 mph 31.1 mph 0.00 in Snow Light Snow
12:03 PM 12.2 °F -6.3 °F 8.6 °F 85% 29.52 in 1.0 mi South 20.7 mph - N/A Snow Light Snow
12:08 PM 12.2 °F -6.3 °F 8.6 °F 85% 29.51 in 1.8 mi SSW 20.7 mph - N/A Snow Light Snow
12:13 PM 12.2 °F -7.5 °F 8.6 °F 85% 29.49 in 1.2 mi SSW 24.2 mph 28.8 mph N/A Snow Light Snow
12:18 PM 14.0 °F -5.1 °F 10.4 °F 86% 29.49 in 1.0 mi SSW 24.2 mph 28.8 mph N/A Snow Light Snow
12:23 PM 14.0 °F -5.5 °F 10.4 °F 86% 29.48 in 1.5 mi SSW 25.3 mph 29.9 mph N/A Snow Light Snow
12:24 PM 14.0 °F -5.1 °F 10.4 °F 86% 29.48 in 2.0 mi SSW 24.2 mph 29.9 mph N/A   Overcast
12:34 PM 14.0 °F -4.7 °F 10.4 °F 86% 29.49 in 3.0 mi SSW 23.0 mph 32.2 mph N/A   Overcast
12:39 PM 14.0 °F -5.1 °F 10.4 °F 86% 29.47 in 4.0 mi SSW 24.2 mph 31.1 mph N/A   Overcast
12:54 PM 15.8 °F -3.4 °F 12.2 °F 86% 29.44 in 4.0 mi SSW 26.5 mph 29.9 mph N/A   Overcast
12:58 PM 16.0 °F -2.5 °F 12.0 °F 84% 29.52 in 4.0 mi SSW 24.2 mph 29.9 mph 0.00 in   Overcast
1:43 PM 19.4 °F 2.1 °F 15.8 °F 86% 29.37 in 8.0 mi SW 24.2 mph - N/A   Scattered Clouds
1:58 PM 20.7 °F 6.1 °F 16.9 °F 85% 29.45 in 9.0 mi SW 17.3 mph - N/A   Clear
2:58 PM 27.1 °F 14.5 °F 21.7 °F 80% 29.40 in 10.0 mi SW 17.3 mph - N/A   Clear
3:58 PM 36.0 °F 28.5 °F 27.9 °F 72% 29.35 in 10.0 mi WSW 10.4 mph - N/A   Clear
4:58 PM 41.0 °F 31.6 °F 28.6 °F 61% 29.33 in 10.0 mi WNW 20.7 mph 31.1 mph 0.01 in   Clear
5:58 PM 40.3 °F 29.5 °F 27.7 °F 61% 29.33 in 10.0 mi WNW 26.5 mph 33.4 mph N/A   Scattered Clouds
6:58 PM 38.5 °F 27.3 °F 28.0 °F 66% 29.27 in 10.0 mi WNW 25.3 mph 34.5 mph N/A   Clear
7:58 PM 37.2 °F 25.9 °F 28.9 °F 72% 29.32 in 10.0 mi WNW 24.2 mph 29.9 mph N/A   Clear
8:58 PM 36.9 °F 25.1 °F 28.4 °F 71% 29.32 in 10.0 mi WNW 25.3 mph 32.2 mph N/A   Overcast
9:58 PM 37.4 °F 25.6 °F 28.6 °F 70% 29.31 in 10.0 mi WNW 26.5 mph 34.5 mph N/A   Overcast
10:53 PM 35.6 °F 24.0 °F 30.2 °F 81% 29.26 in 10.0 mi NW 23.0 mph 32.2 mph N/A   Overcast
10:58 PM 36.0 °F 24.7 °F 30.4 °F 80% 29.33 in 10.0 mi NW 21.9 mph 32.2 mph N/A   Mostly Cloudy
11:58 PM 36.1 °F 24.7 °F 30.0 °F 78% 29.34 in 10.0 mi NNW 23.0 mph 31.1 mph N/A   Mostly Cloudy